Retour au catalogue

AURORA 2 R/B

PAM-D

ActifGTO
NORAD 21394·ROCKET BODY·🇺🇸 United States

Lancé May 29, 1991 depuis Cape Canaveral Space Force Station

Loading…

TLE

PériméSource: Space-Track

Époque: Sep 14, 2026, 08:50 UTC

1 21394U 91037C   26257.36845156 -.00000197  00000-0  00000-0 0  9997
2 21394  24.1914  13.8608 6844896 352.5453   4.5840  2.22008218286394

Suivez AURORA 2 R/B en temps réel avec AllMySat

Download on the App Store